When you browse on this site, cookies collect data to enhance your experience and personalize the content and advertising you see.
Visit our Privacy Policy to learn more. By continuing to use the site, you agree to this use of cookies and data.
  • In Latvia
  • List of Countries
  • For 7 days
  • Water Temperature
  • Weather Map
  • Weather Widgets
  • user-avatar
    Login

    Hourly Weather Sydney

    Today, 23 September, Monday

    Time Temperature Precipitation Wind Pressure Humidity
    00:00 +14°C° 0 mm 3 mps 765 mmHg 75%
    01:00 +14°C° 0 mm 4 mps 765 mmHg 72%
    02:00 +13°C° 0 mm 4 mps 765 mmHg 71%
    03:00 +13°C° 0 mm 4 mps 766 mmHg 69%
    04:00 +12°C° 0 mm 3 mps 765 mmHg 67%
    05:00 +12°C° 0 mm 3 mps 766 mmHg 66%
    06:00 +12°C° 0 mm 3 mps 766 mmHg 66%
    07:00 +13°C° 0 mm 3 mps 766 mmHg 65%
    08:00 +16°C° 0 mm 3 mps 766 mmHg 55%
    09:00 +18°C° 0 mm 3 mps 766 mmHg 44%
    10:00 +20°C° 0 mm 3 mps 766 mmHg 34%
    11:00 +21°C° 0 mm 3 mps 765 mmHg 31%
    12:00 +22°C° 0 mm 3 mps 765 mmHg 29%
    13:00 +22°C° 0 mm 3 mps 764 mmHg 26%
    14:00 +21°C° 0 mm 4 mps 764 mmHg 28%
    15:00 +21°C° 0 mm 4 mps 764 mmHg 31%
    16:00 +20°C° 0 mm 4 mps 765 mmHg 35%
    17:00 +17°C° 0 mm 5 mps 765 mmHg 38%
    18:00 +16°C° 0 mm 6 mps 766 mmHg 41%
    19:00 +14°C° 0 mm 6 mps 767 mmHg 44%
    20:00 +13°C° 0 mm 6 mps 767 mmHg 47%
    21:00 +11°C° 0 mm 6 mps 768 mmHg 51%
    22:00 +10°C° 0 mm 5 mps 769 mmHg 55%
    23:00 +10°C° 0 mm 5 mps 769 mmHg 57%

    Tomorrow, 24 September, Tuesday

    Time Temperature Precipitation Wind Pressure Humidity
    00:00 +11°C° 0 mm 4 mps 769 mmHg 59%
    01:00 +10°C° 0 mm 4 mps 769 mmHg 61%
    02:00 +10°C° 0 mm 3 mps 769 mmHg 63%
    03:00 +9°C° 0 mm 3 mps 768 mmHg 65%
    04:00 +9°C° 0 mm 3 mps 768 mmHg 67%
    05:00 +9°C° 0 mm 3 mps 769 mmHg 65%
    06:00 +10°C° 0 mm 3 mps 769 mmHg 64%
    07:00 +10°C° 0 mm 3 mps 770 mmHg 62%
    08:00 +12°C° 0 mm 3 mps 769 mmHg 55%
    09:00 +16°C° 0 mm 2 mps 769 mmHg 48%
    10:00 +19°C° 0 mm 2 mps 769 mmHg 41%
    11:00 +20°C° 0 mm 2 mps 769 mmHg 36%
    12:00 +21°C° 0 mm 2 mps 768 mmHg 32%
    13:00 +22°C° 0 mm 3 mps 768 mmHg 28%
    14:00 +22°C° 0 mm 4 mps 767 mmHg 31%
    15:00 +21°C° 0 mm 4 mps 767 mmHg 35%
    16:00 +21°C° 0 mm 5 mps 767 mmHg 39%
    17:00 +19°C° 0 mm 4 mps 767 mmHg 49%
    18:00 +17°C° 0 mm 3 mps 768 mmHg 59%
    19:00 +15°C° 0 mm 2 mps 768 mmHg 69%
    20:00 +15°C° 0 mm 2 mps 769 mmHg 69%
    21:00 +14°C° 0 mm 2 mps 769 mmHg 70%
    22:00 +14°C° 0 mm 2 mps 770 mmHg 70%
    23:00 +13°C° 0 mm 2 mps 769 mmHg 70%

    Day after tomorrow, 25 September, Wednesday

    Time Temperature Precipitation Wind Pressure Humidity
    00:00 +13°C° 0 mm 2 mps 769 mmHg 69%
    01:00 +12°C° 0 mm 2 mps 769 mmHg 68%
    02:00 +10°C° 0 mm 3 mps 769 mmHg 69%
    03:00 +10°C° 0 mm 3 mps 769 mmHg 70%
    04:00 +9°C° 0 mm 3 mps 769 mmHg 71%
    05:00 +10°C° 0 mm 3 mps 769 mmHg 68%
    06:00 +10°C° 0 mm 3 mps 770 mmHg 66%
    07:00 +10°C° 0 mm 3 mps 770 mmHg 64%
    08:00 +13°C° 0 mm 3 mps 770 mmHg 56%
    09:00 +17°C° 0 mm 3 mps 770 mmHg 48%
    10:00 +19°C° 0 mm 2 mps 770 mmHg 40%
    11:00 +20°C° 0 mm 3 mps 769 mmHg 40%
    12:00 +21°C° 0 mm 3 mps 769 mmHg 41%
    13:00 +21°C° 0 mm 3 mps 768 mmHg 41%
    14:00 +20°C° 0 mm 4 mps 768 mmHg 47%
    15:00 +19°C° 0 mm 4 mps 767 mmHg 53%
    16:00 +19°C° 0 mm 5 mps 767 mmHg 59%
    17:00 +17°C° 0 mm 4 mps 768 mmHg 65%
    18:00 +15°C° 0 mm 4 mps 768 mmHg 72%
    19:00 +14°C° 0 mm 3 mps 769 mmHg 79%
    20:00 +15°C° 0 mm 2 mps 769 mmHg 79%
    21:00 +15°C° 0 mm 2 mps 769 mmHg 79%
    22:00 +15°C° 0 mm 1 mps 769 mmHg 80%
    23:00 +15°C° 0 mm 1 mps 769 mmHg 81%

    26 September, Thursday

    Time Temperature Precipitation Wind Pressure Humidity
    00:00 +14°C° 0 mm 2 mps 769 mmHg 82%
    01:00 +14°C° 0 mm 2 mps 769 mmHg 83%
    02:00 +14°C° 0 mm 1 mps 768 mmHg 84%
    03:00 +14°C° 0 mm 1 mps 768 mmHg 84%
    04:00 +14°C° 0 mm 1 mps 768 mmHg 84%
    05:00 +14°C° 0 mm 1 mps 768 mmHg 82%
    06:00 +15°C° 0 mm 1 mps 768 mmHg 80%
    07:00 +15°C° 0 mm 1 mps 769 mmHg 78%
    08:00 +18°C° 0 mm 1 mps 768 mmHg 68%
    09:00 +20°C° 0 mm 1 mps 768 mmHg 58%
    10:00 +23°C° 0 mm 1 mps 767 mmHg 48%
    11:00 +24°C° 0 mm 1 mps 766 mmHg 44%
    12:00 +24°C° 0 mm 2 mps 766 mmHg 40%
    13:00 +25°C° 0 mm 3 mps 765 mmHg 36%
    14:00 +24°C° 0 mm 3 mps 765 mmHg 43%
    15:00 +22°C° 0 mm 4 mps 764 mmHg 49%
    16:00 +21°C° 0 mm 5 mps 764 mmHg 55%
    17:00 +19°C° 0 mm 4 mps 764 mmHg 64%
    18:00 +18°C° 0 mm 3 mps 765 mmHg 73%
    19:00 +17°C° 0 mm 2 mps 765 mmHg 81%
    20:00 +16°C° 0.2 mm 2 mps 765 mmHg 83%
    21:00 +16°C° 0.2 mm 2 mps 765 mmHg 85%
    22:00 +16°C° 0.2 mm 2 mps 765 mmHg 87%
    23:00 +15°C° 0 mm 2 mps 765 mmHg 86%

    27 September, Friday

    Time Temperature Precipitation Wind Pressure Humidity
    00:00 +15°C° 0 mm 2 mps 765 mmHg 85%
    01:00 +14°C° 0 mm 2 mps 765 mmHg 85%
    02:00 +14°C° 0 mm 2 mps 764 mmHg 84%
    03:00 +13°C° 0 mm 2 mps 764 mmHg 83%
    04:00 +12°C° 0 mm 3 mps 764 mmHg 81%
    05:00 +12°C° 0 mm 3 mps 764 mmHg 77%
    06:00 +12°C° 0 mm 3 mps 764 mmHg 73%
    07:00 +12°C° 0 mm 3 mps 764 mmHg 69%
    08:00 +16°C° 0 mm 3 mps 764 mmHg 57%
    09:00 +19°C° 0 mm 3 mps 763 mmHg 45%
    10:00 +22°C° 0 mm 3 mps 763 mmHg 33%
    11:00 +25°C° 0 mm 3 mps 762 mmHg 29%
    12:00 +26°C° 0 mm 4 mps 762 mmHg 25%
    13:00 +28°C° 0 mm 4 mps 761 mmHg 21%
    14:00 +28°C° 0 mm 4 mps 761 mmHg 23%
    15:00 +27°C° 0 mm 3 mps 761 mmHg 25%
    16:00 +27°C° 0 mm 3 mps 760 mmHg 27%
    17:00 +25°C° 0 mm 2 mps 761 mmHg 31%
    18:00 +24°C° 0 mm 2 mps 762 mmHg 36%
    19:00 +22°C° 0 mm 1 mps 762 mmHg 41%
    20:00 +20°C° 0 mm 3 mps 763 mmHg 46%
    21:00 +19°C° 0 mm 5 mps 763 mmHg 51%
    22:00 +17°C° 0 mm 7 mps 764 mmHg 57%
    23:00 +16°C° 0 mm 7 mps 764 mmHg 64%

    28 September, Saturday

    Time Temperature Precipitation Wind Pressure Humidity
    00:00 +15°C° 0 mm 6 mps 765 mmHg 71%
    01:00 +15°C° 0 mm 6 mps 765 mmHg 78%
    02:00 +15°C° 0 mm 5 mps 765 mmHg 76%
    03:00 +15°C° 0 mm 5 mps 765 mmHg 74%
    04:00 +15°C° 0 mm 4 mps 765 mmHg 71%
    05:00 +16°C° 0 mm 3 mps 766 mmHg 71%
    06:00 +16°C° 0 mm 3 mps 766 mmHg 70%
    07:00 +16°C° 0 mm 2 mps 766 mmHg 70%
    08:00 +17°C° 0 mm 2 mps 766 mmHg 66%
    09:00 +17°C° 0 mm 2 mps 766 mmHg 62%
    10:00 +19°C° 0 mm 1 mps 766 mmHg 59%
    11:00 +19°C° 0 mm 2 mps 766 mmHg 57%
    12:00 +19°C° 0 mm 2 mps 765 mmHg 56%
    13:00 +20°C° 0 mm 3 mps 765 mmHg 55%
    14:00 +19°C° 0 mm 3 mps 765 mmHg 56%
    15:00 +19°C° 0 mm 4 mps 764 mmHg 56%
    16:00 +19°C° 0 mm 4 mps 764 mmHg 57%
    17:00 +18°C° 0 mm 4 mps 764 mmHg 63%
    18:00 +17°C° 0 mm 4 mps 765 mmHg 69%
    19:00 +16°C° 0 mm 3 mps 765 mmHg 75%
    20:00 +14°C° 0 mm 3 mps 765 mmHg 77%
    21:00 +14°C° 0 mm 3 mps 765 mmHg 79%
    22:00 +14°C° 0 mm 3 mps 766 mmHg 81%
    23:00 +13°C° 0 mm 3 mps 765 mmHg 84%
    Show more